Etusivu
METAR-TAF:

METAR-TAF

Lentoasemat :

Appleton Municipal Airport

Appleton, Minnesota, Yhdysvallat

Leveyspiiri: 45-13-39N, Pituuspiiri: 096-00-15W, korkeus merenpinnasta: 310 m

Tämänhetkinen sää

Tämä raportti tehtiin 14 minuuttia sitten, kello 12.30 UTC
tyyntä
Lämpötila -8°C
Kosteus 92%
Ilmanpaine 1016 hPa
Näkyvyys: 16.1 km
selkeää

METAR: KAQP 241230Z AUTO 00000KT 10SM CLR M08/M09 A2999 RMK AO2

Aika: 06:44 (12:44 UTC)


TAF: puuttuu

Säähavainnot ja -ennusteet yli 4000 lentoasemalta (METAR- ja TAF-raportit).

Käytössä olevat sääasemat on merkitty karttaan keltaisilla ja punaisilla pisteillä.

Aseta hiiri pisteen päälle nähdäksesi sääaseman nimen.

Klikkaa sitten nähdäksesi säähavainnot ja -ennusteet.

Kartan vaihtaminen: klikkaa mustalla rastilla varustettuja vihreitä pisteitä, niin voit zoomata sisään; viivalla varustettua vihreää pistettä, niin voit zoomata ulos tai vihreitä nuolia, niin pääset viereisille kartoille.


METAR-TAF: